Regional Weather Roundup
Issued by NWS

Home | Current Version | Previous Version | Graphics & Text | Print | Product List | Glossary Off
Versions: 1 2 3 4 5 6 7 8 9 10 11 12 13 14 15 16 17 18 19 20 21 22 23 24 25 26 27 28 29 30 31 32 33 34 35 36 37 38 39 40 41 42 43 44 45 46 47 48 49 50

000
ASUS43 KDMX 171801
RWRIA

WEATHER ROUNDUP FOR IOWA
NATIONAL WEATHER SERVICE DES MOINES IA
100 PM CDT THU AUG 17 2017

NOTE: "FAIR" INDICATES FEW OR NO CLOUDS BELOW 12,000 FEET WITH NO
SIGNIFICANT WEATHER AND/OR OBSTRUCTIONS TO VISIBILITY.

* - THESE STATIONS ARE NOT NWS STATIONS...THUS NOT UNDER NWS
QUALITY CONTROL.  THEY ALSO DO NOT REPORT WEATHER SUCH
AS PRECIPITATION OR FOG.

IAZ001>003-012>014-020>022-031>034-043>046-171900-
   NORTHWEST IOWA

CITY           SKY/WX    TMP DP  RH WIND       PRES   REMARKS
CARROLL *      SUNNY     75  64  69 NW15G23   29.87R
CHEROKEE *     MOSUNNY   74  63  67 NW16      29.88S
DENISON *      SUNNY     75  61  60 NW15G25   29.90F
LE MARS *      SUNNY     75  61  60 NW13G24   29.89S
ORANGE CITY *  SUNNY     75  63  64 NW15G25   29.88F
SHELDON *      MOSUNNY   73  63  68 NW13G21   29.86F
SIOUX CITY     SUNNY     77  61  57 NW22      29.90S
6HR MIN TEMP:  63; 6HR MAX TEMP:  77;

SPENCER        PTSUNNY   73  61  65 NW17G26   29.86R
6HR MIN TEMP:  65; 6HR MAX TEMP:  73;

STORM LAKE *     N/A     72  63  73 NW14      29.88S
$$

IAZ055>058-069>071-079>083-090>094-171900-
   SOUTHWEST IOWA

CITY           SKY/WX    TMP DP  RH WIND       PRES   REMARKS
ATLANTIC *     SUNNY     77  63  61 NW13G20   29.90F
AUDUBON *      SUNNY     75  63  64 NW12G18   29.90S
CLARINDA *     SUNNY     77  61  57 NW16G25   29.95S
COUNCIL BLFS * SUNNY     77  61  57 NW16G23   29.93S
CRESTON *      SUNNY     77  59  53 W22G30    29.91F
HARLAN  *      SUNNY     77  63  61 W18G26    29.94R
LAMONI         MOSUNNY   79  62  56 W15       29.90S HX  80
6HR MIN TEMP:  63; 6HR MAX TEMP:  79;

RED OAK *      SUNNY     79  61  53 NW13G22   29.93S HX  80
SHENANDOAH *   SUNNY     79  59  50 NW13G20   29.94S HX  80
$$

IAZ047>049-059>061-072>074-084-171900-
   CENTRAL IOWA

CITY           SKY/WX    TMP DP  RH WIND       PRES   REMARKS
AMES           CLOUDY    73  66  78 NW17G25   29.84R
6HR MIN TEMP:  67; 6HR MAX TEMP:  74;

ANKENY *       PTSUNNY   77  63  61 NW14G24   29.85F
BOONE *        CLOUDY    73  63  68 W15G23    29.84S
CHARITON *     PTSUNNY   75  63  64 W13G21    29.87F
DES MOINES     MOSUNNY   78  61  55 W15G24    29.84F HX  80
6HR MIN TEMP:  67; 6HR MAX TEMP:  78;

GRINNELL*      PTSUNNY   73  64  73 W15G24    29.84F
KNOXVILLE *    CLOUDY    73  63  68 W16G24    29.85S
MARSHALLTOWN   CLOUDY    73  64  73 W13G24    29.81R
6HR MIN TEMP:  66; 6HR MAX TEMP:  75; 6HR PCP: TRACE;

NEWTON *       PTSUNNY   73  64  73 W17       29.84F
PELLA *        CLOUDY    74  63  67 W12       29.86S
PERRY *        CLOUDY    74  65  73 NW10G17   29.86S
$$

IAZ004>006-015-016-023>025-035-036-171900-
   NORTH CENTRAL IOWA

CITY           SKY/WX    TMP DP  RH WIND       PRES   REMARKS
ALGONA *       CLOUDY    70  64  83 NW15G24   29.83F
CLARION *      CLOUDY    72  64  78 NW16G26   29.82S
ESTHERVILLE    CLOUDY    68  62  81 NW17G24   29.83S
6HR MIN TEMP:  64; 6HR MAX TEMP:  68; 6HR PCP:  0.01;

FORT DODGE *   CLOUDY    70  61  73 NW9G22    29.85S
MASON CITY     PTSUNNY   72  62  71 W28G33    29.79R
6HR MIN TEMP:  66; 6HR MAX TEMP:  74; 6HR PCP:  0.01;

FOREST CITY *  CLOUDY    70  63  78 NW20G33   29.79S
WEBSTER CITY * CLOUDY    73  64  73 NW17G23   29.82R
IOWA FALLS *   CLOUDY    73  64  73 W18G24    29.82S
$$

IAZ007>011-017>019-026>030-037>042-050>054-066-171900-
   NORTHEAST IOWA

CITY           SKY/WX    TMP DP  RH WIND       PRES   REMARKS
CEDAR RAPIDS   CLOUDY    77  66  68 W17       29.78S
6HR MIN TEMP:  65; 6HR MAX TEMP:  78;

CHARLES CITY * CLOUDY    72  64  78 W21G32    29.75S
CLINTON *      PTSUNNY   77  68  73 W22G29    29.77S
DECORAH *      CLOUDY    66  64  94 W9G23     29.70R FOG
DUBUQUE        CLOUDY    73  65  75 SW20G25   29.74S
6HR MIN TEMP:  67; 6HR MAX TEMP:  74;

MONTICELLO *   CLOUDY    75  64  69 W15G25    29.75S
OELWEIN *      CLOUDY    72  64  78 W18G25    29.76R
WATERLOO       CLOUDY    75  62  64 W20G29    29.76R
6HR MIN TEMP:  66; 6HR MAX TEMP:  77;

$$

IAZ064-065-067-068-078-171900-
   EAST CENTRAL IOWA

CITY           SKY/WX    TMP DP  RH WIND       PRES   REMARKS
DAVENPORT      MOSUNNY   78  65  63 W20G28    29.80S HX  80
6HR MIN TEMP:  71; 6HR MAX TEMP:  78;

IOWA CITY      CLOUDY    80  65  59 W21G26    29.80F HX  82
6HR MIN TEMP:  70; 6HR MAX TEMP:  80;

MUSCATINE *    CLOUDY    81  64  57 W16G23    29.81R HX  82
QUAD CITIES    CLOUDY    79  63  57 W18G30    29.79R HX  80
6HR MIN TEMP:  73; 6HR MAX TEMP:  80;

$$

IAZ062-063-075>077-085>089-095>099-171900-
   SOUTHEAST IOWA

CITY           SKY/WX    TMP DP  RH WIND       PRES   REMARKS
BURLINGTON     CLOUDY    81  66  60 W10G22    29.81F HX  83
6HR MIN TEMP:  71; 6HR MAX TEMP:  81;

FAIRFIELD *    CLOUDY    77  63  61 W16       29.83R
FORT MADISON * CLOUDY    81  68  65 SW13G18   29.83F HX  83
KEOKUK *       CLOUDY    82  64  54 W17G23    29.83F HX  84
OSKALOOSA *    CLOUDY    74  64  71 W13       29.85S
OTTUMWA        CLOUDY    78  63  59 W16G24    29.83F HX  80
6HR MIN TEMP:  67; 6HR MAX TEMP:  79;

WASHINGTON *   PTSUNNY   79  68  69 W15       29.83S HX  81
$$

ABBREVIATIONS USED IN REMARKS
   TC - TEMPERATURES IN CELSIUS
  WCI - WIND CHILL INDEX
   HX - HEAT INDEX
  VSB - VISIBILITY
$$





USA.gov is the U.S. government's official web portal to all federal, state and local government web resources and services.